Location: Bucharest
(44.4268°N, 26.1025°E)
Time: 02:14:24
(UTC+03:00)

CUBESAT XI-V - Pass Details

Date: 07 July 2022
Orbit: 667 x 690 km, 98.1° (Epoch: 07 August)

Event Time Altitude Azimuth Distance (km) Brightness Sun altitude
Exits shadow 01:21:40 - 100° (E) 2,548 ? -23.0°
Reaches altitude 10° 01:23:44 10° 80° (E) 2,102 ? -23.0°
Maximum altitude 01:25:25 12° 59° (ENE) 1,973 ? -23.0°
Drops below altitude 10° 01:27:06 10° 37° (NE) 2,104 ? -22.9°
Sets 01:30:44 0° 7° (N) 3,022 ? -22.9°
